Regional Weather Roundup
Issued by NWS Bismarck, ND

Home | Current Version | Previous Version | Text Only | Print | Product List | Glossary On
Versions: 1 2 3 4 5 6 7 8 9 10 11 12 13 14 15 16 17 18 19 20 21 22 23 24 25 26 27 28 29 30 31 32 33 34 35 36 37 38 39 40 41 42 43 44 45 46 47 48 49 50
000
ASUS43 KBIS 110502
RWRBIS

NWR BROADCAST TEXT
NATIONAL WEATHER SERVICE BISMARCK ND
1100 PM CST SAT DEC 10 2016

NOTE: "FAIR" INDICATES FEW OR NO CLOUDS BELOW 12,000 FEET WITH NO
SIGNIFICANT WEATHER AND/OR OBSTRUCTIONS TO VISIBILITY.


CITY           SKY/WX    TMP DP  RH WIND       PRES   REMARKS
WILLISTON      LGT SNOW   1  -4  79 SE8       29.94S VSB 3/4 WCI -13
MINOT          LGT SNOW  -3  -7  82 E7        30.04S FOG     WCI -16
MINOT AFB      LGT SNOW  -4  -8  84 E10       30.05R WCI -21
BISMARCK       LGT SNOW   0  -4  83 E13       29.97F FOG     WCI -18
DICKINSON      LGT SNOW  -1  -6  79 SE3       29.86F
GARRISON         N/A     -2  -6  83 E13       29.96F WCI -20
HETTINGER ARPT LGT SNOW  -1  -5  82 W3        29.85R FOG
JAMESTOWN      FLURRIES  -1  -6  79 E9        30.04S WCI -16
CARRINGTON     CLOUDY    -2  -6  84 E16       30.05F WCI -23
HAZEN          LGT SNOW   0  -6  78 E6        30.00R WCI -12
STANLEY        LGT SNOW  -6  -9  84 E8        30.00R WCI -21
TIOGA          LGT SNOW  -4  -8  84 E15       29.96F WCI -25
WATFORD CITY   LGT SNOW  -2  -6  84 E14       29.93F WCI -21
$$

CITY           SKY/WX    TMP DP  RH WIND       PRES   REMARKS
GRAND FORKS    CLOUDY    -6 -11  79 NE8       30.19F WCI -21
GRAND FORKS AF NOT AVBL
DEVILS LAKE    CLOUDY    -6 -10  83 E12       30.11S WCI -25
FARGO          CLOUDY     5  -1  76 NE7       30.15F WCI  -7
GRAFTON        FAIR      -9 -13  84 NE6       30.23F WCI -23
GWINNER        CLOUDY     9   5  85 E15       30.04F WCI  -8
LANGDON        FAIR      -8 -13  77 E10       30.12R WCI -26
$$

CITY           SKY/WX    TMP DP  RH WIND       PRES   REMARKS
ABERDEEN       LGT SNOW   9   3  77 NE13      29.97F WCI  -7
MOBRIDGE       LGT SNOW   6  -1  73 E10       29.87F WCI  -9
BUFFALO          N/A      4  -2  76 S9        29.69F WCI -10
RAPID CITY     CLOUDY     6   1  80 NE3       29.74F
GLASGOW        CLOUDY     1  -4  79 E9        29.85S WCI -14
SIDNEY         LGT SNOW   1  -4  79 E7        29.91F WCI -12
WOLF POINT     CLOUDY     4  -2  76 E9        29.90F WCI -10
GLENDIVE       FLURRIES   4   0  83 NE5       29.83F WCI  -5
MILES CITY     CLOUDY    11   6  81 N5        29.80S WCI   3
BAKER          CLOUDY     4  -2  76 SE7       29.77F WCI  -8
$$

CITY           SKY/WX    TMP DP  RH WIND       PRES   REMARKS
BILLINGS       CLOUDY    10   7  87 CALM      29.75R
GREAT FALLS    CLOUDY    -3  -6  87 E6        29.81R WCI -15
$$




USA.gov is the U.S. government's official web portal to all federal, state and local government web resources and services.